| time (UTC) | temp F | wind direction | speed knots | gust knots | rain 1hr in | rain 24hr in | rain mn in | humidity % | barometer mb |
| 20260505180046 | 58 | 355 | 0.0 | 3.5 | 0.00 | 0.00 | 0.00 | 80 | 1016.7 |
| 20260505174547 | 57 | 319 | 0.9 | 2.6 | 0.00 | 0.00 | 0.00 | 82 | 1016.6 |
| 20260505173042 | 57 | 316 | 0.9 | 2.6 | 0.00 | 0.00 | 0.00 | 83 | 1016.5 |
| 20260505171540 | 56 | 350 | 1.7 | 3.5 | 0.00 | 0.00 | 0.00 | 84 | 1016.6 |
| 20260505170039 | 56 | 334 | 0.9 | 4.3 | 0.00 | 0.00 | 0.00 | 85 | 1016.5 |
| 20260505164537 | 56 | 244 | 1.7 | 5.2 | 0.00 | 0.00 | 0.00 | 86 | 1016.4 |
| 20260505163034 | 55 | 258 | 0.0 | 2.6 | 0.00 | 0.00 | 0.00 | 87 | 1016.3 |
| 20260505161541 | 55 | 298 | 0.9 | 4.3 | 0.00 | 0.00 | 0.00 | 87 | 1016.2 |
| 20260505153030 | 54 | 224 | 0.9 | 3.5 | 0.00 | 0.00 | 0.00 | 88 | 1016.2 |
| 20260505151633 | 54 | 243 | 0.9 | 4.3 | 0.00 | 0.00 | 0.00 | 88 | 1016.2 |
| 20260505124517 | 53 | 242 | 1.7 | 4.3 | 0.00 | 0.00 | 0.00 | 88 | 1015.2 |
| 20260505123014 | 53 | 248 | 3.5 | 6.1 | 0.00 | 0.00 | 0.00 | 88 | 1015.1 |
| 20260505121528 | 53 | 221 | 1.7 | 3.5 | 0.00 | 0.00 | 0.00 | 88 | 1015.2 |
| 20260505120011 | 53 | 203 | 1.7 | 4.3 | 0.00 | 0.00 | 0.00 | 88 | 1015.0 |
| 20260505114510 | 53 | 209 | 1.7 | 3.5 | 0.00 | 0.00 | 0.00 | 88 | 1015.1 |
| 20260505113012 | 53 | 203 | 2.6 | 5.2 | 0.00 | 0.00 | 0.00 | 89 | 1014.9 |
| 20260505111507 | 54 | 175 | 1.7 | 3.5 | 0.00 | 0.00 | 0.00 | 89 | 1014.8 |
| 20260505101601 | 53 | 209 | 1.7 | 3.5 | 0.00 | 0.00 | 0.00 | 89 | 1014.4 |
| 20260505100100 | 53 | 184 | 0.9 | 4.3 | 0.00 | 0.00 | 0.00 | 89 | 1014.4 |
| 20260505094625 | 53 | 177 | 0.9 | 3.5 | 0.00 | 0.00 | 0.00 | 89 | 1014.3 |
| 20260505093059 | 53 | 194 | 1.7 | 4.3 | 0.00 | 0.00 | 0.00 | 89 | 1014.2 |
| 20260505091605 | 53 | 198 | 2.6 | 4.3 | 0.00 | 0.00 | 0.00 | 89 | 1014.3 |
| 20260505090104 | 53 | 213 | 1.7 | 5.2 | 0.00 | 0.00 | 0.00 | 89 | 1014.2 |
| 20260505084556 | 53 | 195 | 2.6 | 4.3 | 0.00 | 0.00 | 0.00 | 89 | 1014.3 |
| 20260505083100 | 52 | 187 | 1.7 | 4.3 | 0.00 | 0.00 | 0.00 | 88 | 1014.2 |
| 20260505081557 | 52 | 207 | 1.7 | 3.5 | 0.00 | 0.00 | 0.00 | 88 | 1014.0 |
| 20260505080051 | 52 | 186 | 1.7 | 3.5 | 0.00 | 0.00 | 0.00 | 87 | 1014.0 |
| 20260505074546 | 52 | 201 | 1.7 | 3.5 | 0.00 | 0.00 | 0.00 | 87 | 1013.9 |
| 20260505073045 | 53 | 201 | 0.9 | 3.5 | 0.00 | 0.00 | 0.00 | 86 | 1013.9 |
| 20260505071548 | 53 | 185 | 1.7 | 3.5 | 0.00 | 0.00 | 0.00 | 85 | 1013.7 |
| 20260505070039 | 53 | 221 | 0.9 | 3.5 | 0.00 | 0.00 | 0.00 | 84 | 1013.6 |
| 20260505064541 | 54 | 221 | 2.6 | 4.3 | 0.00 | 0.00 | 0.00 | 84 | 1013.4 |
| 20260505063039 | 54 | 218 | 1.7 | 4.3 | 0.00 | 0.00 | 0.00 | 83 | 1013.4 |
| 20260505061538 | 54 | 232 | 3.5 | 6.1 | 0.00 | 0.00 | 0.00 | 83 | 1013.4 |
| 20260505060039 | 55 | 248 | 3.5 | 7.8 | 0.00 | 0.00 | 0.00 | 82 | 1013.4 |
| 20260505054541 | 56 | 222 | 4.3 | 8.7 | 0.00 | 0.00 | 0.00 | 82 | 1013.3 |
| 20260505053036 | 56 | 238 | 6.1 | 11.3 | 0.00 | 0.00 | 0.00 | 81 | 1013.1 |
| 20260505051535 | 57 | 231 | 6.1 | 9.6 | 0.00 | 0.00 | 0.00 | 81 | 1013.1 |
| 20260505041533 | 57 | 263 | 7.0 | 9.6 | 0.00 | 0.00 | 0.00 | 78 | 1012.3 |
| 20260505040133 | 58 | 270 | 7.8 | 12.2 | 0.00 | 0.00 | 0.00 | 76 | 1011.8 |
| 20260505034533 | 58 | 263 | 7.8 | 12.2 | 0.00 | 0.00 | 0.00 | 76 | 1011.7 |
| 20260505033038 | 59 | 272 | 9.6 | 14.8 | 0.00 | 0.00 | 0.00 | 75 | 1011.4 |
| 20260505031543 | 60 | 267 | 12.2 | 16.5 | 0.00 | 0.00 | 0.00 | 73 | 1011.2 |
| 20260505030032 | 62 | 275 | 13.0 | 16.5 | 0.00 | 0.00 | 0.00 | 72 | 1010.9 |
| 20260505024545 | 64 | 267 | 8.7 | 12.2 | 0.00 | 0.00 | 0.00 | 70 | 1010.5 |
| 20260505023040 | 65 | 274 | 12.2 | 14.8 | 0.00 | 0.00 | 0.00 | 68 | 1010.4 |
| 20260505021530 | 67 | 277 | 7.8 | 13.0 | 0.00 | 0.00 | 0.00 | 68 | 1010.4 |
| 20260505020029 | 68 | 279 | 8.7 | 12.2 | 0.00 | 0.00 | 0.00 | 66 | 1010.2 |
| 20260505014535 | 69 | 292 | 8.7 | 13.0 | 0.00 | 0.00 | 0.00 | 65 | 1010.4 |
| 20260505013027 | 73 | 292 | 8.7 | 11.3 | 0.00 | 0.00 | 0.00 | 60 | 1010.3 |
| 20260505011525 | 73 | 259 | 6.1 | 9.6 | 0.00 | 0.00 | 0.00 | 61 | 1010.4 |
| 20260505010024 | 73 | 221 | 4.3 | 7.8 | 0.00 | 0.00 | 0.00 | 61 | 1010.5 |
| 20260505004522 | 73 | 164 | 4.3 | 7.8 | 0.00 | 0.00 | 0.00 | 61 | 1010.7 |
| 20260505003019 | 72 | 157 | 4.3 | 10.4 | 0.00 | 0.00 | 0.00 | 64 | 1010.5 |
| 20260505001517 | 71 | 162 | 4.3 | 9.6 | 0.00 | 0.00 | 0.00 | 65 | 1010.6 |
| 20260505000017 | 71 | 163 | 5.2 | 8.7 | 0.00 | 0.00 | 0.00 | 64 | 1010.8 |
| 20260504234513 | 71 | 136 | 4.3 | 10.4 | 0.00 | 0.00 | 0.00 | 65 | 1011.0 |
| 20260504233012 | 70 | 159 | 6.1 | 13.0 | 0.00 | 0.00 | 0.00 | 64 | 1011.1 |
| 20260504231510 | 70 | 130 | 5.2 | 9.6 | 0.00 | 0.00 | 0.00 | 65 | 1011.1 |
| 20260504230009 | 69 | 128 | 4.3 | 10.4 | 0.00 | 0.00 | 0.00 | 65 | 1011.4 |
| 20260504224508 | 70 | 166 | 6.1 | 11.3 | 0.00 | 0.00 | 0.00 | 65 | 1011.7 |
| 20260504223006 | 69 | 217 | 5.2 | 10.4 | 0.00 | 0.00 | 0.00 | 66 | 1011.9 |
| 20260504221504 | 69 | 232 | 4.3 | 9.6 | 0.00 | 0.00 | 0.00 | 67 | 1012.1 |
| 20260504220002 | 68 | 189 | 5.2 | 11.3 | 0.00 | 0.00 | 0.00 | 66 | 1012.2 |
| 20260504214606 | 68 | 130 | 3.5 | 9.6 | 0.00 | 0.00 | 0.00 | 67 | 1012.4 |
| 20260504213058 | 67 | 193 | 4.3 | 10.4 | 0.00 | 0.00 | 0.00 | 67 | 1012.5 |
| 20260504211555 | 67 | 181 | 4.3 | 12.2 | 0.00 | 0.00 | 0.00 | 69 | 1012.6 |
| 20260504204608 | 65 | 160 | 6.1 | 9.6 | 0.00 | 0.00 | 0.00 | 70 | 1013.1 |
| 20260504203113 | 64 | 123 | 3.5 | 10.4 | 0.00 | 0.00 | 0.00 | 71 | 1013.2 |
| 20260504201548 | 64 | 213 | 4.3 | 8.7 | 0.00 | 0.00 | 0.00 | 71 | 1013.3 |
| 20260504200049 | 63 | 221 | 4.3 | 10.4 | 0.00 | 0.00 | 0.00 | 73 | 1013.4 |
| 20260504194548 | 62 | 177 | 5.2 | 11.3 | 0.00 | 0.00 | 0.00 | 74 | 1013.4 |
| 20260504193048 | 62 | 171 | 3.5 | 9.6 | 0.00 | 0.00 | 0.00 | 76 | 1013.4 |
| 20260504191550 | 61 | 181 | 5.2 | 10.4 | 0.00 | 0.00 | 0.00 | 77 | 1013.5 |
| 20260504190050 | 60 | 164 | 5.2 | 10.4 | 0.00 | 0.00 | 0.00 | 78 | 1013.7 |
| 20260504184544 | 60 | 157 | 4.3 | 8.7 | 0.00 | 0.00 | 0.00 | 78 | 1013.9 |
| 20260504183043 | 59 | 198 | 5.2 | 8.7 | 0.00 | 0.00 | 0.00 | 79 | 1013.7 |
| 20260504181542 | 58 | 172 | 5.2 | 13.0 | 0.00 | 0.00 | 0.00 | 79 | 1013.7 |